Regional Weather Roundup
Issued by NWS

Home | Current Version | Previous Version | Graphics & Text | Print | Product List | Glossary On
Versions: 1 2 3 4 5 6 7 8 9 10 11 12 13 14 15 16 17 18 19 20 21 22 23 24 25 26 27 28 29 30 31 32 33 34 35 36 37 38 39 40 41 42 43 44 45 46
000
ASUS45 KCYS 252010
RWRWY

WYOMING REGIONAL WEATHER ROUNDUP
NATIONAL WEATHER SERVICE CHEYENNE WY
100 PM MST THU DEC 25 2014

NOTE:  "FAIR" INDICATES FEW OR NO CLOUDS BELOW 12,000 FEET
WITH NO SIGNIFICANT WEATHER AND/OR OBSTRUCTIONS TO VISIBILITY.

WYZ001-252100-
YELLOWSTONE NATIONAL PARK

CITY           SKY/WX    TMP DP  RH WIND       PRES   REMARKS
LK YELLOWSTONE   N/A     16  11  80 CALM      29.65S
W YELLOWSTONE  NOT AVBL

$$
WYZ002>013-054>058-071-098>099-252100-
NORTHERN WYOMING

CITY           SKY/WX    TMP DP  RH WIND       PRES   REMARKS
JACKSON        LGT SNOW  21  18  86 N23G31    29.56R WCI   5
CODY           CLOUDY    21  19  93 N17       29.77S WCI   7
GREYBULL       CLOUDY    28  19  69 NW23      29.72R WCI  14
WORLAND        SNOW      25  22  88 NW15      29.72R VSB 1/2 WCI  13
SHERIDAN       LGT SNOW  24  21  88 NW16      29.83S VSB 1   WCI  11
BUFFALO        LGT SNOW  22  19  89 N22G36    29.76R FOG     WCI   6
GILLETTE       LGT SNOW  22  20  92 N15       29.75R FOG     WCI   9
HULETT           N/A    N/A N/A N/A MISG        N/A
NEWCASTLE      LGT SNOW  28  23  80 N12       29.69R WCI  18

$$
WYZ014>020-022>026-101>103-252100-
CENTRAL WYOMING

CITY           SKY/WX    TMP DP  RH WIND       PRES   REMARKS
BIG PINEY      SNOW      23  20  88 S8        29.53R VSB 1/4 WCI  14
PINEDALE       CLOUDY    27  10  50 CALM      29.51R
DUBOIS         NOT AVBL
LANDER         SNOW      23  20  88 NE9       29.67R VSB 1/2 WCI  13
RIVERTON       LGT SNOW  23  18  81 N18G29    29.67R WCI   9
CASPER         SNOW      23  19  85 NE24G32   29.66R VSB 1/2 WCI   7
DOUGLAS        LGT SNOW  27  24  89 E12       29.66R VSB 3/4 WCI  17

$$
WYZ021-027>030-104>119-252100-
SOUTHERN WYOMING

CITY           SKY/WX    TMP DP  RH WIND       PRES   REMARKS
EVANSTON       SNOW      21  19  92 SW14      29.53S VSB 1/2 WCI   8
FORT BRIDGER   LGT SNOW  24  21  89 W16G24    29.54S WCI  11
ROCK SPRINGS   SNOW      20  17  88 NE26G41   29.52R VSB 1/2 WCI   2
DIXON          LGT SNOW  30  28  91 W5        29.51S VSB 3/4 WCI  25
RAWLINS        SNOW      21  18  88 N12       29.52S VSB 1/2 WCI   9
SARATOGA       LGT SNOW  25  23  93 N9        29.51R VSB 3/4 WCI  15
LARAMIE        SNOW      26  24  92 E15       29.46S VSB 1/2 WCI  14
CHEYENNE       LGT SNOW  27  22  81 N16       29.51S WCI  15
TORRINGTON     SNOW      28  26  92 NE14      29.60R VSB 1/2 WCI  17
PINE BLUFFS    LGT SNOW  28  27  93 N13G20    29.54R WCI  18

$$



USA.gov is the U.S. government's official web portal to all federal, state and local government web resources and services.